CW7595 Weather Reports


Display with metric or nautical units.
time (UTC)temp
F
wind
direction
speed
MPH
gust
MPH
rain 1hr
in
rain 24hr
in
rain mn
in
humidity
%
barometer
mb
20260903074544 56 211 0.0 3.0 0.00 0.00 0.00 76 1016.0
20260903073041 56 151 0.0 2.0 0.00 0.00 0.00 75 1016.2
20260903071538 56 110 0.0 0.0 0.00 0.00 0.00 75 1016.2
20260903070035 56 36 0.0 0.0 0.00 0.00 0.00 75 1016.5
20260903064541 56 137 0.0 5.0 0.00 0.00 0.00 75 1016.5
20260903063032 56 80 0.0 5.0 0.00 0.00 0.00 76 1016.8
20260903061540 56 69 0.0 4.0 0.00 0.00 0.00 77 1016.9
20260903060029 56 99 0.0 2.0 0.00 0.00 0.00 78 1017.2
20260903054525 56 95 0.0 1.0 0.00 0.00 0.00 78 1017.3
20260903053024 56 125 0.0 0.0 0.00 0.00 0.00 78 1017.4
20260903051522 56 94 0.0 1.0 0.00 0.00 0.00 78 1017.5
20260903050028 56 132 0.0 4.0 0.00 0.00 0.00 78 1017.7
20260903044519 56 73 0.0 3.0 0.00 0.00 0.00 78 1017.7
20260903043018 57 123 0.0 0.0 0.00 0.00 0.00 78 1017.6
20260903041517 57 117 0.0 0.0 0.00 0.00 0.00 77 1017.6
20260903040014 57 117 0.0 0.0 0.00 0.00 0.00 76 1017.6
20260903034518 57 144 0.0 1.0 0.00 0.00 0.00 76 1017.6
20260903033012 58 76 0.0 0.0 0.00 0.00 0.00 75 1017.7
20260903031510 58 89 0.0 0.0 0.00 0.00 0.00 74 1017.7
20260903030009 58 84 0.0 0.0 0.00 0.00 0.00 73 1018.0
20260903024508 59 85 0.0 2.0 0.00 0.00 0.00 72 1018.2
20260903023007 59 96 0.0 0.0 0.00 0.00 0.00 71 1018.4
20260903021507 60 66 0.0 0.0 0.00 0.00 0.00 68 1018.4
20260903020006 60 183 0.0 4.0 0.00 0.00 0.00 68 1018.3
20260903014505 60 101 0.0 1.0 0.00 0.00 0.00 68 1018.1
20260903013005 60 71 0.0 0.0 0.00 0.00 0.00 68 1018.2
20260903011504 60 71 0.0 1.0 0.00 0.00 0.00 68 1018.2
20260903010007 61 108 0.0 2.0 0.00 0.00 0.00 67 1018.2
20260903004503 61 115 0.0 2.0 0.00 0.00 0.00 66 1018.2
20260903003002 61 125 0.0 0.0 0.00 0.00 0.00 64 1018.3
20260903001502 62 131 0.0 0.0 0.00 0.00 0.00 63 1018.5
20260903000002 62 119 0.0 2.0 0.00 0.00 0.00 62 1018.3
20260902234501 63 69 0.0 0.0 0.00 0.00 0.00 61 1018.2
20260902233106 63 128 0.0 3.0 0.00 0.00 0.00 60 1018.2
20260902231608 64 105 0.0 3.0 0.00 0.00 0.00 59 1018.3
20260902230056 65 148 0.0 0.0 0.00 0.00 0.00 58 1018.6
20260902224605 65 148 0.0 1.0 0.00 0.00 0.00 58 1018.6
20260902223056 66 88 0.0 0.0 0.00 0.00 0.00 56 1018.8
20260902221555 67 88 0.0 0.0 0.00 0.00 0.00 54 1018.8
20260902220058 68 88 0.0 0.0 0.00 0.00 0.00 53 1019.0
20260902214553 68 82 0.0 0.0 0.00 0.00 0.00 51 1018.9
20260902213102 68 71 0.0 0.0 0.00 0.00 0.00 51 1018.8
20260902211551 69 77 0.0 0.0 0.00 0.00 0.00 49 1019.1
20260902210050 70 77 0.0 1.0 0.00 0.00 0.00 47 1019.1
20260902204547 71 68 0.0 1.0 0.00 0.00 0.00 45 1019.2
20260902203059 71 111 0.0 1.0 0.00 0.00 0.00 46 1019.4
20260902201545 72 71 0.0 1.0 0.00 0.00 0.00 45 1019.6
20260902200052 73 113 0.0 1.0 0.00 0.00 0.00 41 1019.6
20260902194541 73 123 0.0 1.0 0.00 0.00 0.00 48 1019.6
20260902193040 74 83 0.0 0.0 0.00 0.00 0.00 48 1019.9
20260902191548 74 95 0.0 0.0 0.00 0.00 0.00 45 1019.9
20260902190039 74 97 0.0 5.0 0.00 0.00 0.00 40 1020.0
20260902184547 74 5 0.0 0.0 0.00 0.00 0.00 43 1020.2
20260902183037 73 155 0.0 1.0 0.00 0.00 0.00 43 1020.4
20260902181537 74 205 0.0 5.0 0.00 0.00 0.00 38 1020.6
20260902180039 74 138 0.0 1.0 0.00 0.00 0.00 42 1020.7
20260902174534 74 96 0.0 3.0 0.00 0.00 0.00 47 1020.8
20260902173031 73 178 0.0 8.0 0.00 0.00 0.00 47 1021.0
20260902171529 73 116 0.0 6.0 0.00 0.00 0.00 57 1021.0
20260902170027 72 144 0.0 4.0 0.00 0.00 0.00 53 1021.1
20260902164524 71 132 0.0 1.0 0.00 0.00 0.00 56 1021.2
20260902163023 69 184 0.0 1.0 0.00 0.00 0.00 57 1021.3
20260902161522 70 161 0.0 5.0 0.00 0.00 0.00 56 1021.4
20260902160020 70 185 0.0 8.0 0.00 0.00 0.00 57 1021.5
20260902154525 69 78 0.0 5.0 0.00 0.00 0.00 59 1021.5
20260902153021 67 145 0.0 4.0 0.00 0.00 0.00 63 1021.7
20260902151512 66 160 0.0 5.0 0.00 0.00 0.00 59 1021.7
20260902150009 65 172 0.0 7.0 0.00 0.00 0.00 60 1021.6
20260902144513 64 134 0.0 3.0 0.00 0.00 0.00 65 1021.7
20260902143005 63 196 0.0 3.0 0.00 0.00 0.00 72 1021.8
20260902141600 62 82 0.0 1.0 0.00 0.00 0.00 74 1021.8
20260902140055 60 161 0.0 0.0 0.00 0.00 0.00 77 1022.0
20260902134558 60 164 0.0 1.0 0.00 0.00 0.00 77 1022.0
20260902133100 60 186 0.0 3.0 0.00 0.00 0.00 79 1021.9
20260902131558 59 111 0.0 1.0 0.00 0.00 0.00 80 1021.9
20260902130048 58 111 0.0 0.0 0.00 0.00 0.00 82 1022.1
20260902124547 57 86 0.0 3.0 0.00 0.00 0.00 82 1022.2
20260902123102 57 106 0.0 0.0 0.00 0.00 0.00 84 1022.2
20260902121553 56 104 0.0 2.0 0.00 0.00 0.00 85 1022.1
20260902120046 55 40 0.0 0.0 0.00 0.00 0.00 85 1022.1
20260902114540 54 40 0.0 0.0 0.00 0.00 0.00 85 1022.1
20260902113039 53 40 0.0 0.0 0.00 0.00 0.00 85 1022.4
20260902111546 52 40 0.0 0.0 0.00 0.00 0.00 86 1022.4
20260902110038 51 40 0.0 0.0 0.00 0.00 0.00 85 1022.4
20260902104536 50 40 0.0 0.0 0.00 0.00 0.00 85 1022.4
20260902103034 50 40 0.0 0.0 0.00 0.00 0.00 84 1022.2
20260902101535 49 40 0.0 0.0 0.00 0.00 0.00 84 1022.2
20260902100034 50 40 0.0 0.0 0.00 0.00 0.00 84 1022.1
20260902094530 50 40 0.0 0.0 0.00 0.00 0.00 84 1022.0
20260902093028 51 40 0.0 0.0 0.00 0.00 0.00 84 1021.9
20260902091526 51 40 0.0 0.0 0.00 0.00 0.00 84 1021.7
20260902090026 51 40 0.0 0.0 0.00 0.00 0.00 84 1021.7
20260902084525 51 40 0.0 0.0 0.00 0.00 0.00 84 1021.6
20260902083024 50 40 0.0 0.0 0.00 0.00 0.00 84 1021.6
20260902081523 50 40 0.0 0.0 0.00 0.00 0.00 83 1021.5
20260902080021 51 40 0.0 0.0 0.00 0.00 0.00 83 1021.4